Location: Le Domaine
(47.0333°N, 76.5361°W)
Time: 15:20:05
(UTC-05:00)

Transit 2A Rocket - Pass Details

Date: 15 November 2019
Orbit: 594 x 909 km, 66.7° (Epoch: 05 December)

Event Time Altitude Azimuth Distance (km) Brightness Sun altitude
Exits shadow 05:39:48 - 342° (NNW) 2,323 7.2 -15.2°
Reaches altitude 10° 05:41:05 10° 353° (N) 1,939 6.9 -15.0°
Maximum altitude 05:44:09 19° 38° (NE) 1,469 6.8 -14.5°
Drops below altitude 10° 05:47:16 10° 83° (E) 1,970 8.4 -14.0°
Sets 05:50:10 0° 102° (ESE) 2,909 10.1 -13.5°
